Theta_e
336 337 339 340 341 339 340 345 348 347 348 350 351 349 349 349 351 353 352 353 355 356 358 359 358 359 359 358 359 359 357 357 356 353 354 356 355 356 355 354 355 358 356 355 358 358 362 364 363 363 364 364 365 366 367 370 368 363 365 366 367 365 367
335 336 337 341 341 341 341 344 348 348 349 350 350 351 350 349 351 352 353 355 355 356 357 357 360 358 358 359 358 360 358 356 357 357 356 357 358 358 358 358 358 359 361 360 360 362 364 362 362 363 363 364 363 365 365 367 368 367 365 368 364 366 367
334 335 336 339 340 341 343 343 346 347 349 349 350 350 350 351 352 354 354 354 355 356 356 356 358 357 358 358 357 358 357 355 356 355 355 354 355 354 356 360 359 357 357 359 362 359 362 363 365 365 364 363 362 364 366 367 367 366 367 367 365 363 364
337 336 337 339 341 345 345 345 345 346 347 348 349 349 350 352 353 355 355 354 354 355 355 354 355 354 355 357 356 357 356 355 355 353 353 354 354 354 356 356 358 359 357 358 358 358 357 360 362 364 363 363 363 364 365 366 366 366 367 368 367 364 366
341 342 341 339 340 343 345 346 346 347 347 346 348 351 351 352 352 353 354 353 352 352 353 353 352 353 354 355 353 354 355 354 354 354 354 354 357 357 355 354 355 354 356 357 359 361 362 362 359 361 362 363 363 363 363 364 365 366 367 368 366 364 363
342 342 341 340 339 340 342 346 348 348 347 346 347 350 351 351 351 350 352 352 351 351 352 353 351 352 352 353 352 351 354 355 357 357 354 355 355 353 354 354 353 354 353 354 357 358 359 358 358 357 359 359 358 357 360 361 361 363 365 368 367 364 360
344 345 344 343 342 341 339 341 344 346 348 348 348 350 351 351 352 351 352 351 351 351 350 349 350 350 352 351 351 353 352 352 354 354 354 354 354 353 353 352 354 353 354 356 356 357 357 356 357 358 357 357 361 359 362 363 365 364 365 366 368 367 367
342 342 346 347 347 345 343 342 343 343 346 349 348 348 350 351 353 351 351 352 353 353 352 350 349 351 352 353 351 350 350 349 351 354 354 352 352 353 351 351 351 353 354 352 355 356 354 356 356 358 356 358 359 362 361 364 366 364 361 364 364 366 361
341 342 344 345 347 348 347 346 345 344 346 347 348 349 350 351 352 352 354 354 355 355 354 352 351 353 354 353 352 352 350 349 348 348 350 349 349 349 349 350 351 354 353 351 350 354 355 354 355 358 361 361 361 363 363 363 362 362 361 363 363 363 361
342 342 344 346 347 349 350 349 350 351 346 347 349 349 349 350 351 353 353 355 357 356 353 353 356 355 357 356 354 353 350 350 347 347 347 347 347 347 348 348 349 352 351 351 349 348 354 355 356 358 361 359 360 362 363 362 363 359 358 362 365 365 365
342 343 343 344 346 348 350 349 348 348 349 350 350 351 351 350 351 353 354 356 356 356 356 353 356 359 359 359 358 355 353 349 347 347 348 347 346 346 347 347 347 349 351 350 348 348 349 354 356 357 358 355 356 358 359 359 360 359 360 359 363 364 363
341 342 342 343 345 347 347 348 350 349 348 350 351 351 352 353 353 354 354 356 357 358 359 356 355 356 360 362 360 358 357 354 352 350 350 351 348 347 347 347 347 349 349 351 349 350 349 349 352 353 355 356 356 358 360 362 362 362 363 361 361 362 364
339 341 342 342 343 346 347 349 349 348 349 348 351 353 352 352 354 356 356 356 358 358 359 359 356 358 361 362 361 361 360 359 357 355 353 354 352 349 349 348 347 348 348 350 350 350 348 348 351 352 352 354 355 359 362 363 362 367 367 367 366 366 364
339 341 342 342 342 343 343 346 348 347 348 347 347 349 352 355 354 354 356 357 358 359 360 359 358 360 362 362 361 361 360 361 361 361 360 361 362 358 354 352 349 348 350 351 351 350 349 347 347 351 353 353 356 365 367 367 367 370 369 368 366 365 363
338 338 340 340 341 342 343 345 347 348 348 347 349 349 350 352 354 354 354 355 357 358 359 360 360 360 361 361 360 360 362 362 361 363 364 364 365 363 360 359 358 356 355 355 354 353 351 350 348 351 356 358 359 364 365 366 363 358 357 360 363 365 363
337 338 338 339 341 342 343 344 344 346 347 348 348 346 346 348 350 353 353 353 355 357 358 359 360 360 359 359 359 361 363 364 365 364 365 366 366 365 365 363 361 360 360 359 359 358 357 356 355 355 354 357 360 363 364 360 352 342 340 343 355 359 360
337 338 339 340 342 342 342 343 343 344 345 345 347 347 347 349 350 351 352 353 354 355 356 359 359 359 358 357 360 361 363 361 361 362 362 363 363 365 365 364 362 361 361 361 361 361 362 359 357 359 361 360 360 359 355 349 342 331 332 335 339 353 361
338 339 338 339 340 341 341 342 342 342 344 345 346 348 349 348 349 350 350 351 351 353 355 355 357 357 356 357 358 358 357 357 358 359 360 360 360 363 365 364 362 362 362 361 360 360 360 361 360 361 361 361 356 355 350 344 329 325 330 332 334 341 355
338 339 338 338 339 339 339 340 341 343 343 344 345 346 348 349 348 348 351 351 353 354 353 353 354 355 355 357 358 355 354 355 353 355 356 356 358 360 361 361 358 358 360 360 362 361 358 358 357 356 355 355 352 349 350 346 326 325 326 330 331 336 350
337 338 339 339 340 340 341 342 342 343 344 344 344 346 348 349 348 348 351 351 350 350 351 352 352 352 352 352 353 354 355 354 354 354 355 356 357 357 358 356 356 357 357 359 359 358 356 355 354 354 354 353 351 350 346 344 328 322 326 328 329 333 347
337 338 339 340 340 340 341 341 342 343 344 346 346 348 348 348 348 347 349 346 344 344 345 347 346 347 349 349 351 354 354 354 354 353 353 354 355 356 355 353 354 354 354 353 352 351 350 347 347 347 348 349 350 349 343 338 321 321 324 325 328 336 349
338 338 339 340 340 341 341 342 343 343 344 346 347 348 347 347 348 347 344 345 344 344 344 344 344 344 345 346 346 347 348 349 350 351 351 351 352 352 352 352 350 348 347 345 343 343 341 339 340 341 344 346 346 345 344 342 320 320 323 327 335 341 345
337 337 338 339 339 340 342 343 343 345 345 346 346 347 348 349 348 347 348 348 347 345 344 342 343 344 344 344 345 345 346 348 347 347 347 348 348 349 350 350 345 344 343 339 338 337 335 335 336 340 341 342 343 343 341 340 323 320 325 327 329 337 341
338 339 338 339 341 341 343 343 344 346 345 346 346 346 347 348 348 347 349 349 347 347 346 345 341 342 344 345 346 346 347 345 346 346 346 347 346 346 344 343 340 338 337 334 332 331 333 335 337 338 340 339 339 340 337 334 324 318 319 323 327 337 339
338 339 340 340 340 341 342 343 345 345 346 347 343 345 346 347 348 347 346 346 344 343 345 344 342 342 342 345 346 345 346 347 346 345 344 344 343 342 340 338 336 334 331 329 329 330 334 336 334 333 335 336 337 336 337 336 329 316 317 320 326 334 337
338 339 340 342 342 343 344 345 346 345 344 343 342 344 345 346 346 346 345 345 346 344 342 342 344 344 345 345 345 345 346 346 344 344 344 342 340 337 334 332 330 329 329 329 330 330 332 333 332 329 331 334 335 336 335 334 332 325 316 319 321 327 338
341 341 342 342 342 343 343 343 342 341 341 342 344 345 345 344 344 343 344 345 345 343 342 343 344 343 342 342 340 340 339 339 339 338 338 339 337 336 333 331 330 331 332 332 332 331 329 329 329 329 332 335 335 335 334 333 333 327 314 315 319 325 333
341 340 342 343 343 343 342 341 341 341 340 341 342 343 344 345 343 342 342 343 341 340 341 341 340 340 339 337 336 335 335 336 339 339 335 333 332 330 329 331 333 334 333 332 330 328 326 327 327 327 329 333 335 334 332 333 334 335 320 315 316 321 327
339 338 339 340 340 340 340 339 338 335 337 340 343 345 346 345 343 342 342 340 341 341 341 340 338 337 336 334 333 333 333 334 335 334 333 331 332 331 331 333 332 333 332 331 330 328 327 328 328 329 330 331 332 333 334 334 333 329 329 318 315 316 320
339 339 338 339 339 338 338 338 337 337 336 338 341 345 345 343 341 341 339 338 341 341 341 339 337 337 335 334 333 332 333 335 334 333 333 332 332 332 332 333 334 333 332 332 331 329 330 332 331 329 328 329 330 333 334 336 335 328 326 324 314 312 312
338 337 337 338 338 338 339 338 337 338 338 338 339 341 342 343 340 339 337 338 340 339 338 337 336 335 334 333 332 332 333 334 335 335 335 334 333 332 332 332 333 332 333 332 331 331 330 331 331 330 329 328 329 330 332 333 333 331 324 320 318 315 314
336 336 336 336 337 339 339 338 338 340 340 340 341 341 342 342 342 340 339 340 339 339 338 337 335 334 333 334 334 333 333 332 333 334 335 335 334 333 332 331 330 329 330 329 328 330 330 330 330 330 329 328 328 330 331 332 333 332 331 328 326 321 316
335 336 335 334 335 339 339 338 337 337 338 339 339 339 339 340 339 340 341 341 340 340 339 337 335 334 334 333 332 334 333 331 329 328 328 328 327 327 328 329 328 327 326 325 324 325 326 329 331 330 328 327 327 330 332 332 333 334 334 333 330 327 326
337 335 335 336 338 339 339 337 336 336 337 337 337 337 337 337 337 339 339 339 340 339 338 337 336 335 334 331 329 328 327 327 328 327 326 326 325 323 324 325 326 326 327 327 327 325 325 328 330 330 329 327 327 328 330 330 332 333 333 331 330 329 328
337 336 337 336 337 339 339 338 337 337 336 336 338 337 337 336 336 337 339 340 341 340 338 336 336 335 331 329 327 324 324 322 323 323 323 323 322 318 314 314 321 330 328 321 318 321 329 330 330 331 331 329 328 328 329 330 331 331 314 330 317 335 333
336 335 336 337 337 338 338 338 338 336 337 338 339 338 338 337 338 338 337 339 340 339 337 335 333 331 330 330 328 327 325 322 320 320 319 319 320 320 316 309 300 305 320 320 311 304 299 309 326 329 333 332 332 329 331 330 328 306 301 301 301 302 304
335 333 335 337 336 336 336 336 337 337 337 338 339 339 338 338 338 340 340 340 340 339 337 336 333 332 330 331 331 330 329 327 326 326 325 322 322 324 324 322 316 298 296 303 304 299 297 297 299 305 314 332 328 317 305 306 302 299 299 299 299 300 301
335 334 334 336 336 335 335 335 336 337 337 338 338 337 337 336 338 339 340 341 339 338 337 336 334 333 332 332 332 332 333 331 331 329 329 326 325 325 325 324 323 320 302 296 298 298 295 295 296 299 304 311 318 325 320 305 299 299 299 299 300 300 300
Wind_Speed
10 10 11 11 11 12 12 13 13 13 13 14 13 14 14 13 12 11 12 13 14 14 14 13 12 12 12 11 11 10 10 9 9 9 8 7 7 7 7 7 7 5 5 5 5 4 4 4 4 4 4 5 6 5 5 4 4 4 4 4 4 4 4
11 10 10 10 11 12 13 13 13 12 13 13 13 14 13 14 13 12 12 13 15 15 15 15 13 12 12 11 11 11 11 11 10 8 8 7 6 6 6 6 5 5 5 4 3 4 3 5 5 5 5 6 6 5 5 5 5 4 4 3 4 4 4
9 9 12 10 11 11 12 13 13 12 13 13 13 13 14 14 14 14 13 13 15 15 14 15 15 14 12 12 11 12 12 12 11 10 10 9 10 9 8 6 6 6 6 6 4 4 6 6 5 5 5 5 5 5 4 5 5 5 4 4 4 4 4
7 10 10 11 12 10 11 11 13 13 12 13 14 15 15 16 15 14 14 14 15 15 15 15 15 15 13 13 13 12 13 13 12 11 11 10 10 9 8 8 7 6 6 6 6 6 4 4 5 5 5 5 5 4 5 4 4 5 5 4 5 5 5
6 6 7 5 5 5 7 10 11 12 12 13 14 14 15 14 12 12 14 14 15 16 15 15 13 14 12 13 11 11 13 14 13 12 11 10 9 8 8 9 9 8 7 7 6 5 4 4 5 6 6 6 6 6 6 6 6 5 5 5 5 6 5
5 6 6 7 7 5 6 8 10 11 12 11 11 12 12 14 14 15 14 14 14 14 14 14 14 13 13 13 12 11 12 13 12 12 11 10 10 9 9 8 8 8 9 8 6 6 7 7 6 6 6 7 8 7 7 6 7 7 6 6 5 6 6
1 1 3 5 6 7 7 6 7 9 10 10 11 10 11 12 14 12 11 13 14 14 15 15 14 13 12 12 12 13 13 13 13 14 12 12 10 10 9 8 8 8 7 7 7 5 6 7 7 6 6 7 6 6 5 4 4 3 4 4 5 5 5
1 2 2 3 5 7 8 9 8 7 9 9 9 10 12 11 11 14 14 13 13 12 13 14 14 12 12 11 11 13 13 13 12 12 11 13 12 11 10 9 9 8 8 8 7 7 7 7 7 7 7 7 7 7 6 6 6 6 7 7 6 7 6
2 2 4 3 5 5 6 7 7 7 8 9 10 10 11 11 11 13 13 12 11 11 12 12 12 12 11 11 11 12 12 12 12 12 13 13 12 12 11 10 9 9 9 8 8 8 7 7 8 6 5 6 5 5 5 5 6 7 8 6 6 6 6
3 3 3 4 4 5 6 6 5 3 6 7 8 9 10 10 10 10 12 12 12 14 15 13 10 10 11 11 12 13 12 11 11 13 13 13 12 12 11 10 9 8 9 9 8 8 7 7 7 6 6 6 6 6 5 5 5 4 8 9 6 6 3
3 3 3 4 4 5 6 6 6 5 5 6 7 8 9 10 10 10 10 11 12 11 12 11 9 8 10 11 12 12 11 12 12 12 12 12 11 12 11 10 9 8 9 9 9 9 8 7 7 7 7 7 7 7 7 7 6 5 5 11 6 4 5
2 2 2 3 4 4 6 6 5 5 5 5 7 7 8 8 9 10 11 11 11 10 10 11 11 11 11 10 11 10 11 11 10 10 11 11 11 11 10 10 10 10 8 8 9 9 8 8 7 7 7 7 7 6 6 5 5 7 9 8 5 4 4
2 2 2 3 3 3 3 5 8 7 4 1 1 3 4 6 7 8 10 11 11 10 11 11 11 11 11 11 11 10 10 10 10 9 9 9 10 9 9 10 10 10 9 8 9 9 9 8 8 7 7 7 6 5 3 2 3 2 2 3 3 3 4
2 3 1 2 2 3 3 4 5 7 7 5 3 1 1 2 4 6 8 9 10 10 10 9 11 11 11 11 10 10 11 10 9 8 8 8 8 8 8 9 10 9 8 8 9 8 8 9 8 7 7 7 6 4 2 1 0 1 2 2 2 2 3
3 3 2 2 2 2 3 3 3 5 7 7 6 6 5 4 4 5 6 7 9 10 10 10 10 11 11 10 10 10 10 10 9 8 7 7 6 7 8 8 8 7 7 7 7 6 7 8 8 7 5 4 2 1 1 2 4 5 4 4 4 3 2
3 3 3 1 1 2 1 0 1 1 3 5 6 6 4 3 3 4 6 8 9 9 10 10 11 11 11 10 10 10 10 9 9 9 8 7 7 7 7 7 7 6 6 6 6 7 6 6 5 6 7 5 4 3 2 4 4 6 8 7 5 5 3
3 2 1 1 2 3 3 4 2 2 1 2 3 4 6 5 4 5 5 6 8 9 9 10 11 10 10 10 10 9 8 6 6 7 8 9 8 7 7 7 7 7 7 7 7 7 6 6 6 5 3 1 3 3 4 4 5 7 6 7 8 7 4
3 3 2 1 2 3 4 3 2 2 3 3 3 3 3 4 5 6 7 7 8 8 8 10 11 10 10 10 10 9 9 7 6 7 8 8 8 8 7 7 8 8 7 7 7 6 5 6 5 3 2 1 1 3 4 5 7 5 6 6 7 7 6
2 3 2 3 3 2 1 1 2 2 0 2 3 3 3 3 4 4 5 6 7 6 7 7 9 9 10 10 8 10 9 9 9 9 9 9 9 8 8 8 7 7 7 6 5 4 4 3 3 3 4 3 2 4 4 4 8 6 7 6 6 6 8
0 2 3 3 4 3 2 2 2 2 1 2 2 3 2 2 3 3 2 3 2 3 6 7 7 5 8 9 10 9 10 11 11 11 11 10 9 8 8 8 6 5 4 3 5 4 3 3 3 3 2 2 3 3 4 5 8 9 7 5 6 6 6
2 2 2 3 3 4 3 2 3 3 4 3 2 2 3 3 4 4 3 5 6 4 2 2 5 3 3 4 3 4 6 7 8 9 9 8 8 7 8 8 6 5 4 6 5 5 5 4 4 4 4 4 3 3 3 5 8 7 6 5 4 3 9
4 3 3 3 3 3 3 2 2 3 4 3 3 3 3 3 4 6 6 5 6 6 4 3 4 5 5 5 4 3 4 4 6 6 6 6 7 8 8 9 7 6 7 7 7 8 8 6 5 6 6 6 5 4 4 5 9 7 6 4 4 10 8
2 3 4 3 2 3 2 2 3 4 4 5 4 3 3 3 3 5 7 7 6 7 7 6 6 5 5 4 4 4 5 6 5 4 4 6 6 7 6 6 9 6 7 8 7 7 6 6 6 5 7 7 6 6 7 8 11 8 9 9 10 10 9
3 3 2 3 2 3 4 3 3 5 5 6 5 3 3 2 4 4 5 4 4 4 5 5 3 3 3 4 5 5 4 5 4 5 5 5 7 6 7 8 7 7 6 8 8 8 6 6 7 5 6 8 8 8 9 9 9 10 11 10 8 10 10
4 3 4 3 3 4 3 3 2 2 3 2 5 6 4 3 4 4 5 5 6 4 3 5 6 6 3 3 4 5 5 6 5 5 4 5 5 5 5 5 4 5 7 8 8 7 5 6 8 9 8 8 9 13 12 10 9 10 9 9 10 10 9
4 4 4 4 5 5 5 3 3 2 4 4 5 5 4 3 3 5 6 6 7 6 5 5 6 8 6 6 7 5 5 6 7 7 6 7 6 6 7 8 7 7 9 9 8 7 6 7 8 10 8 7 9 9 10 10 8 8 11 10 10 10 10
4 4 5 6 6 4 6 5 4 4 4 3 4 4 4 4 4 4 5 5 6 8 8 7 7 8 8 8 7 7 7 7 7 8 9 9 9 8 8 6 8 9 11 11 10 9 9 9 8 8 7 7 9 10 10 8 7 7 8 8 8 10 11
6 7 7 7 6 5 6 7 7 8 8 6 2 3 4 5 6 6 7 8 10 10 9 9 9 8 9 8 6 7 8 9 8 8 8 9 9 9 9 9 9 5 7 8 10 11 11 10 8 8 8 7 6 8 9 10 10 7 9 11 12 13 12
6 6 6 5 5 5 6 6 6 6 6 2 1 4 4 7 9 9 8 10 10 10 10 10 10 10 11 9 9 8 8 7 9 9 8 9 10 11 10 10 8 8 8 9 9 9 10 9 9 7 9 9 9 9 9 10 9 10 10 14 16 15 14
6 5 5 6 6 6 5 4 4 4 6 6 1 1 4 8 9 10 11 11 9 10 10 10 10 10 10 10 10 11 9 9 10 10 10 11 11 11 10 8 9 9 9 9 9 9 9 8 9 10 10 10 11 10 10 10 10 11 13 13 15 13 13
6 6 6 7 7 5 4 5 6 8 7 6 6 7 7 8 10 11 11 9 9 10 10 10 9 9 10 10 10 10 10 10 10 10 10 9 9 10 10 10 10 9 8 8 8 8 9 8 8 9 9 10 10 11 10 10 11 10 11 15 14 15 15
7 7 8 7 6 5 7 8 6 7 10 9 9 9 8 8 9 11 10 9 8 8 8 8 7 7 9 10 12 11 10 11 12 12 10 10 8 8 8 8 8 8 7 8 8 8 8 9 9 9 10 10 12 11 11 11 11 12 11 12 13 13 17
7 6 5 5 6 7 9 10 9 9 10 11 10 9 9 9 8 9 8 9 9 11 10 10 11 10 10 10 10 11 10 11 9 9 9 9 8 7 7 6 7 7 7 8 8 9 9 10 10 10 11 11 13 12 11 11 11 12 11 10 11 11 12
8 8 6 7 9 10 10 9 11 11 11 10 9 10 10 10 10 10 9 10 10 11 10 10 11 11 11 11 9 9 9 9 10 9 8 7 7 6 6 6 6 6 6 6 6 9 9 9 9 10 10 12 13 13 12 12 11 11 11 11 10 11 11
8 9 9 10 9 9 9 10 11 12 12 11 10 11 10 10 10 11 11 11 11 10 11 11 12 11 11 10 10 10 9 9 8 9 9 9 9 9 8 8 7 6 8 8 7 6 3 9 10 9 9 11 12 13 11 11 11 6 6 7 7 8 9
9 9 9 10 9 10 11 11 12 12 11 9 9 9 10 10 10 10 10 10 10 11 11 10 10 10 10 9 10 9 9 9 9 9 9 9 8 8 9 14 15 11 7 6 10 13 14 12 6 4 8 9 7 4 8 10 7 7 10 13 13 14 15
9 9 9 9 10 11 11 11 11 11 11 9 8 7 7 7 8 9 8 8 8 8 8 7 7 8 8 8 8 8 8 9 8 8 8 8 8 8 8 8 10 15 15 12 12 13 15 15 15 16 14 8 9 10 18 16 13 12 13 14 14 14 14
9 9 9 9 10 10 11 12 11 11 11 9 9 8 8 7 6 7 8 7 7 7 6 7 7 7 7 7 7 7 7 7 7 8 8 7 7 7 8 8 9 8 13 13 13 14 15 15 14 15 15 14 12 12 8 10 11 13 14 13 14 13 14
Wind_Direction
202 217 218 213 205 203 201 194 195 189 188 187 189 191 187 188 185 182 183 183 186 184 186 187 191 190 190 191 194 192 198 197 193 194 198 201 209 204 199 202 193 207 210 198 196 204 203 208 228 225 210 202 219 213 223 230 234 234 221 233 245 260 268
201 216 236 223 208 206 205 197 198 193 191 191 191 191 192 189 185 188 186 185 190 188 185 186 190 193 195 196 194 192 195 199 199 198 202 197 202 210 217 205 218 192 219 241 183 203 207 200 210 210 216 208 218 223 224 222 230 242 247 223 241 252 257
189 201 225 237 227 207 207 200 199 200 194 194 193 191 193 192 187 189 185 186 189 192 190 189 190 193 196 197 199 196 196 198 198 201 208 203 199 207 201 211 212 210 208 205 219 216 201 212 200 213 218 224 229 206 221 239 238 245 235 233 243 240 241
182 188 219 228 232 220 212 201 196 206 201 200 196 194 193 192 192 188 190 188 187 191 194 192 191 194 195 196 200 199 201 202 205 205 209 214 206 204 204 199 211 219 206 213 210 213 221 193 194 197 213 229 228 236 229 235 243 228 227 225 241 243 241
170 180 182 209 224 220 214 209 202 203 207 206 200 200 196 187 191 196 197 197 193 193 194 195 193 195 195 196 200 201 202 202 204 210 210 212 214 212 207 209 200 211 210 211 210 205 213 224 215 200 198 213 223 212 221 223 231 230 231 230 241 248 252
170 186 188 189 196 211 224 220 211 208 207 211 204 200 203 185 194 201 201 200 204 197 194 197 198 195 200 198 200 202 202 204 206 208 213 211 209 212 211 213 216 206 203 211 212 204 200 219 228 220 215 208 214 222 222 214 218 214 206 217 240 252 253
80 175 203 195 189 194 212 226 221 215 204 203 206 197 197 197 195 199 202 205 208 204 200 197 201 198 201 203 202 203 204 204 204 208 208 211 206 216 215 213 215 209 215 205 215 215 209 215 222 226 227 238 242 233 225 224 245 262 256 225 229 239 254
263 263 220 242 226 194 200 213 226 225 211 199 202 201 202 201 189 190 196 202 206 211 212 204 199 200 196 206 207 208 205 207 203 206 209 211 207 210 213 213 207 212 210 216 212 221 222 221 223 215 223 233 228 237 239 229 222 224 236 228 217 235 236
5 307 284 259 219 215 194 195 204 218 212 200 201 201 201 200 195 194 193 197 196 200 214 220 206 199 197 202 208 209 211 210 205 203 210 213 216 212 214 207 210 206 214 217 220 210 221 218 221 225 225 233 242 244 250 267 272 271 253 235 238 242 263
302 300 284 259 244 212 204 180 175 200 205 194 196 193 197 202 199 200 197 195 192 197 201 212 216 202 197 202 207 208 209 209 214 207 207 212 216 221 219 220 212 210 220 222 224 223 206 219 228 216 213 232 236 240 236 232 240 253 283 269 237 248 241
304 299 288 269 240 226 210 204 181 190 202 205 204 198 197 198 199 203 205 194 201 201 196 197 211 207 198 204 207 206 208 211 210 211 212 216 216 218 218 222 221 217 225 226 230 231 224 206 216 225 224 232 233 231 230 227 220 226 239 258 254 230 231
293 288 302 291 256 229 226 210 193 177 191 212 209 203 199 201 202 203 208 203 202 198 194 193 202 200 195 197 204 207 207 211 214 214 214 222 224 223 223 221 223 226 221 226 232 234 231 226 222 219 221 232 245 252 249 245 226 218 230 250 253 230 226
262 286 307 312 281 241 222 216 207 192 160 79 320 227 206 198 205 203 206 211 204 199 195 191 201 197 195 193 193 194 202 207 213 214 216 217 227 225 224 229 228 226 230 225 232 233 232 227 225 233 239 236 238 245 252 271 289 309 286 279 276 261 253
270 251 224 214 236 243 232 221 218 195 175 165 170 144 213 194 204 210 213 209 211 203 199 199 198 195 197 191 189 189 189 193 198 209 214 216 222 233 229 230 237 234 228 232 227 230 233 237 231 222 225 229 225 213 209 193 159 46 13 337 319 301 288
260 256 233 230 192 204 224 219 197 191 197 181 171 176 185 192 189 201 210 217 212 209 200 191 191 197 194 191 191 190 187 187 187 190 200 209 212 221 229 232 243 247 244 237 240 234 234 236 243 242 231 224 200 163 109 78 55 39 5 352 341 331 298
234 247 252 220 152 108 131 226 176 172 183 179 183 195 196 202 207 203 205 206 206 207 200 195 196 196 196 194 191 186 176 168 166 174 179 186 194 206 216 220 223 226 229 237 236 244 246 249 245 245 236 219 195 182 117 80 67 25 1 352 334 320 313
210 223 266 123 97 87 77 66 28 15 309 270 243 203 192 190 204 211 212 214 212 206 196 196 200 198 195 201 198 191 178 173 193 185 182 183 184 190 199 206 212 214 215 223 228 234 238 237 237 243 270 251 191 176 108 78 53 9 357 348 339 315 301
207 163 127 66 50 51 48 59 75 33 16 0 346 312 264 231 220 226 225 211 209 208 208 205 201 189 182 191 194 180 169 174 198 208 202 195 191 187 184 200 205 204 207 212 215 222 227 231 225 211 201 187 160 85 79 79 40 354 12 356 343 327 315
179 145 118 116 97 104 94 62 63 63 67 314 315 309 284 266 245 227 206 198 205 198 199 210 207 195 191 194 185 191 189 178 199 206 208 208 201 192 185 195 198 199 200 207 202 180 208 192 167 174 185 147 105 91 91 83 31 358 10 3 333 318 307
84 122 138 125 129 119 104 126 151 138 133 152 199 231 256 295 234 220 189 129 71 227 199 198 203 206 198 201 203 200 197 198 197 202 202 201 196 186 182 184 180 188 182 150 139 143 146 138 167 165 152 125 126 100 72 69 13 353 359 345 339 330 318
152 177 102 118 116 106 108 133 148 164 159 153 180 179 195 184 197 176 156 181 176 244 260 247 160 141 168 186 215 208 215 206 198 199 200 192 192 195 188 188 178 181 131 100 123 118 113 123 120 102 107 118 107 100 78 58 16 344 349 356 357 24 69
134 129 107 84 90 111 155 140 133 146 148 158 193 159 181 177 187 174 169 189 185 172 192 203 205 188 172 178 192 190 209 235 236 210 188 184 196 203 196 198 173 145 117 113 113 120 117 108 113 116 112 98 92 93 74 62 29 359 4 34 91 93 95
96 97 119 135 123 123 119 150 179 160 175 196 179 194 160 144 167 165 162 178 174 165 189 204 213 188 175 180 189 201 208 218 212 182 177 192 197 205 186 131 100 106 122 112 111 104 102 117 116 118 110 104 102 89 69 49 18 24 67 74 85 101 104
139 150 129 101 110 112 146 168 165 164 188 182 169 157 126 171 187 170 149 145 134 145 164 174 191 193 197 183 191 175 158 145 144 171 184 183 185 145 106 94 103 111 112 117 118 112 117 118 106 91 91 98 92 81 74 61 41 63 80 90 88 96 102
146 111 110 132 133 135 134 109 109 154 159 181 151 124 148 161 153 144 121 113 108 110 116 130 136 105 130 136 132 133 162 163 146 130 129 120 93 95 98 94 94 102 107 111 110 110 120 114 108 98 84 84 87 79 81 83 67 54 66 69 83 102 111
131 135 110 99 96 102 105 114 119 113 73 93 126 153 187 177 150 136 130 128 131 124 123 117 124 131 137 112 106 111 119 127 127 131 123 124 107 97 107 119 117 120 117 113 108 109 102 97 89 85 78 74 76 75 80 83 74 47 61 83 103 112 110
111 97 90 85 76 76 91 82 67 56 66 121 159 164 163 180 155 129 114 129 124 107 105 105 104 102 103 105 108 110 95 86 110 117 121 123 116 119 122 119 123 126 127 119 113 112 105 96 88 82 70 64 72 80 83 89 84 49 47 55 68 82 92
125 114 100 87 80 87 86 85 79 69 46 15 53 150 179 174 134 125 130 119 105 101 102 104 102 103 99 87 79 88 102 110 110 109 108 112 110 111 107 109 103 90 105 111 117 116 109 106 100 93 84 82 86 89 86 80 72 86 50 55 64 76 87
118 107 98 93 98 87 91 104 108 96 80 336 209 162 168 137 120 117 110 99 101 107 109 106 105 107 107 108 105 104 102 106 108 105 107 106 102 105 109 113 114 119 110 112 107 104 108 112 114 109 101 104 104 99 95 90 81 68 74 70 73 73 78
113 104 103 103 105 100 101 116 117 125 138 130 26 202 135 112 112 111 104 101 102 104 106 106 108 111 108 106 106 105 106 109 111 110 113 115 115 113 116 126 126 120 123 123 122 122 118 118 115 114 115 115 109 107 106 102 97 74 73 78 76 74 72
119 117 117 115 113 107 92 107 122 131 130 126 136 116 112 115 112 105 102 103 104 100 102 105 107 107 103 104 109 112 115 110 108 110 112 116 118 120 123 122 121 120 127 126 118 115 114 119 117 111 114 111 111 112 108 102 96 95 80 83 78 75 72
115 116 118 114 116 126 116 116 122 128 128 130 131 126 120 120 114 106 108 112 110 109 106 103 100 101 105 111 113 114 114 110 108 108 111 114 113 113 118 120 117 114 118 117 117 120 123 122 117 119 120 116 115 113 111 108 112 112 106 94 85 76 77
111 107 109 120 131 136 129 131 135 135 133 125 122 115 114 110 103 105 110 116 128 124 118 111 113 112 115 113 113 112 111 109 112 113 110 109 106 103 102 105 116 119 121 123 124 124 125 124 124 125 123 122 120 118 118 118 120 123 120 119 111 107 102
112 103 112 133 149 143 130 135 135 128 116 109 113 115 114 114 115 114 111 114 116 119 121 123 125 125 124 118 113 108 102 98 95 97 87 66 60 67 80 102 110 101 79 76 99 125 126 127 125 120 125 126 127 124 122 122 122 126 130 126 124 121 118
116 112 124 136 136 126 129 135 128 122 120 119 118 113 109 107 104 104 106 109 115 122 124 122 124 121 117 114 110 107 110 109 104 99 96 87 73 60 41 18 15 56 77 47 22 0 97 130 120 117 117 128 131 132 126 131 131 106 20 62 58 114 137
127 127 130 131 133 130 126 123 121 120 115 111 108 107 107 101 98 102 104 109 115 118 119 121 120 119 115 114 113 112 110 105 101 100 104 105 99 94 75 59 53 28 35 49 18 34 34 42 67 73 125 102 59 53 141 132 102 89 77 77 77 70 67
135 133 143 143 137 133 134 131 126 122 116 112 108 103 100 101 102 97 97 103 110 111 108 110 110 110 111 113 109 105 113 113 107 101 100 100 100 95 95 92 60 52 44 39 41 41 39 42 40 41 42 82 104 64 60 82 93 92 94 90 85 84 84
143 137 145 154 146 141 143 144 140 135 130 129 128 124 120 116 109 110 108 108 116 119 114 115 123 121 118 111 109 103 111 113 111 112 106 104 105 105 110 106 100 70 44 43 44 48 49 46 44 48 58 65 94 111 87 72 89 103 99 100 97 98 103